Total_Precipitation_Accumulation
0.33 0.31 0.40 0.62 0.73 0.71 0.71 0.76 1.00 1.01 0.92 0.88 0.88 0.88 0.85 0.87 0.85 0.76 0.70 0.71 0.75 0.82 0.84 0.82 0.80 0.87 0.93 1.02 1.15 1.30 1.45 1.44 1.32 1.15 1.02 0.97 0.92 0.84 0.81 0.80 0.82 0.89 0.93 0.93
0.24 0.22 0.30 0.45 0.55 0.56 0.54 0.55 0.63 0.70 0.70 0.61 0.58 0.61 0.62 0.65 0.61 0.56 0.50 0.46 0.45 0.47 0.48 0.47 0.45 0.45 0.48 0.59 0.76 1.01 1.28 1.27 1.08 0.93 0.79 0.74 0.77 0.79 0.80 0.77 0.81 0.85 0.81 0.82
0.35 0.28 0.29 0.50 0.51 0.47 0.48 0.41 0.42 0.48 0.48 0.43 0.47 0.52 0.53 0.59 0.61 0.48 0.38 0.35 0.34 0.33 0.33 0.33 0.33 0.33 0.36 0.45 0.58 0.76 0.89 0.89 0.80 0.72 0.69 0.74 0.79 0.74 0.74 0.76 0.76 0.77 0.76 0.75
0.36 0.39 0.62 0.78 0.65 0.55 0.51 0.33 0.27 0.28 0.30 0.34 0.44 0.47 0.47 0.46 0.47 0.46 0.35 0.27 0.26 0.26 0.25 0.30 0.31 0.36 0.41 0.48 0.54 0.58 0.61 0.63 0.60 0.59 0.61 0.67 0.71 0.69 0.75 0.79 0.75 0.75 0.78 0.77
0.46 0.53 0.71 0.73 0.61 0.61 0.61 0.47 0.26 0.23 0.24 0.23 0.24 0.26 0.27 0.28 0.27 0.26 0.23 0.19 0.18 0.17 0.18 0.21 0.20 0.23 0.25 0.29 0.31 0.33 0.33 0.34 0.37 0.40 0.42 0.45 0.47 0.54 0.65 0.71 0.73 0.76 0.81 0.82
0.49 0.59 0.71 0.56 0.36 0.36 0.52 0.65 0.25 0.18 0.18 0.16 0.15 0.22 0.23 0.23 0.23 0.19 0.17 0.18 0.17 0.15 0.16 0.18 0.18 0.19 0.18 0.20 0.21 0.21 0.22 0.23 0.26 0.29 0.30 0.32 0.37 0.42 0.48 0.49 0.56 0.66 0.66 0.67
0.44 0.64 0.82 0.60 0.38 0.34 0.59 0.64 0.23 0.15 0.15 0.15 0.16 0.17 0.16 0.19 0.20 0.17 0.16 0.17 0.19 0.18 0.17 0.18 0.21 0.21 0.20 0.21 0.22 0.25 0.27 0.28 0.28 0.27 0.29 0.31 0.35 0.39 0.42 0.45 0.53 0.57 0.59 0.61
0.55 0.85 1.02 0.76 0.53 0.51 0.45 0.23 0.15 0.11 0.12 0.14 0.15 0.14 0.15 0.17 0.18 0.16 0.15 0.16 0.17 0.18 0.20 0.21 0.21 0.20 0.21 0.21 0.23 0.26 0.28 0.29 0.30 0.29 0.31 0.32 0.36 0.40 0.43 0.46 0.49 0.53 0.56 0.59
0.49 0.74 0.74 0.63 0.50 0.39 0.30 0.20 0.12 0.10 0.12 0.16 0.17 0.17 0.19 0.20 0.17 0.17 0.16 0.15 0.15 0.16 0.16 0.18 0.18 0.18 0.18 0.21 0.24 0.26 0.28 0.29 0.31 0.31 0.31 0.29 0.33 0.38 0.41 0.44 0.47 0.52 0.56 0.62
0.27 0.34 0.34 0.32 0.30 0.22 0.19 0.16 0.12 0.12 0.16 0.20 0.22 0.21 0.19 0.19 0.19 0.18 0.17 0.15 0.14 0.15 0.17 0.18 0.19 0.19 0.22 0.22 0.22 0.23 0.28 0.31 0.33 0.32 0.32 0.32 0.34 0.38 0.41 0.44 0.47 0.51 0.57 0.62
0.25 0.23 0.20 0.20 0.20 0.18 0.14 0.11 0.10 0.13 0.18 0.21 0.22 0.22 0.19 0.19 0.21 0.20 0.17 0.17 0.19 0.20 0.19 0.20 0.21 0.23 0.27 0.28 0.26 0.24 0.26 0.29 0.29 0.31 0.35 0.35 0.35 0.37 0.38 0.41 0.49 0.57 0.61 0.64
0.25 0.19 0.20 0.23 0.19 0.15 0.13 0.11 0.10 0.10 0.13 0.17 0.19 0.21 0.20 0.18 0.19 0.22 0.22 0.21 0.23 0.23 0.23 0.24 0.24 0.26 0.28 0.30 0.32 0.32 0.31 0.29 0.29 0.30 0.33 0.34 0.34 0.33 0.36 0.37 0.43 0.47 0.50 0.52
0.17 0.15 0.14 0.15 0.16 0.14 0.12 0.11 0.10 0.10 0.12 0.13 0.15 0.18 0.21 0.20 0.19 0.20 0.22 0.22 0.23 0.24 0.24 0.23 0.23 0.22 0.22 0.25 0.27 0.29 0.30 0.32 0.33 0.33 0.33 0.35 0.34 0.32 0.35 0.35 0.33 0.36 0.40 0.44
0.12 0.13 0.14 0.12 0.12 0.12 0.11 0.11 0.10 0.10 0.10 0.11 0.13 0.16 0.17 0.18 0.16 0.17 0.20 0.22 0.24 0.24 0.22 0.22 0.22 0.21 0.21 0.22 0.26 0.28 0.30 0.31 0.33 0.36 0.38 0.38 0.40 0.43 0.43 0.45 0.44 0.38 0.36 0.39
0.11 0.11 0.12 0.12 0.11 0.11 0.11 0.12 0.12 0.12 0.12 0.13 0.14 0.16 0.16 0.17 0.17 0.18 0.20 0.22 0.22 0.23 0.23 0.25 0.22 0.20 0.21 0.22 0.24 0.25 0.27 0.30 0.33 0.40 0.45 0.44 0.46 0.52 0.53 0.46 0.41 0.41 0.39 0.39
0.13 0.12 0.13 0.13 0.14 0.13 0.12 0.12 0.13 0.13 0.13 0.14 0.16 0.20 0.21 0.20 0.18 0.17 0.19 0.20 0.21 0.23 0.24 0.25 0.24 0.24 0.22 0.21 0.21 0.22 0.24 0.31 0.33 0.36 0.40 0.41 0.44 0.48 0.50 0.49 0.47 0.49 0.49 0.52
0.15 0.15 0.16 0.18 0.17 0.15 0.13 0.13 0.14 0.16 0.16 0.17 0.19 0.21 0.22 0.21 0.21 0.20 0.20 0.20 0.22 0.24 0.24 0.25 0.27 0.27 0.26 0.23 0.23 0.24 0.26 0.29 0.32 0.34 0.36 0.37 0.41 0.45 0.48 0.48 0.50 0.51 0.52 0.57
0.16 0.16 0.16 0.18 0.19 0.16 0.14 0.13 0.15 0.17 0.19 0.21 0.23 0.24 0.26 0.27 0.27 0.26 0.25 0.24 0.25 0.27 0.29 0.29 0.30 0.29 0.27 0.25 0.25 0.26 0.27 0.29 0.32 0.35 0.37 0.38 0.42 0.47 0.52 0.51 0.49 0.50 0.51 0.55
0.21 0.20 0.19 0.19 0.20 0.19 0.17 0.16 0.16 0.18 0.20 0.21 0.23 0.26 0.27 0.27 0.27 0.27 0.26 0.27 0.28 0.30 0.29 0.28 0.30 0.26 0.25 0.28 0.30 0.30 0.33 0.35 0.37 0.39 0.39 0.41 0.44 0.47 0.51 0.50 0.50 0.50 0.52 0.54
0.23 0.21 0.19 0.19 0.19 0.19 0.19 0.17 0.17 0.20 0.22 0.22 0.22 0.23 0.24 0.23 0.23 0.25 0.27 0.29 0.30 0.30 0.26 0.26 0.28 0.28 0.29 0.30 0.32 0.32 0.35 0.40 0.45 0.48 0.48 0.48 0.49 0.52 0.54 0.51 0.53 0.56 0.56 0.57
0.20 0.19 0.19 0.19 0.19 0.19 0.19 0.18 0.19 0.20 0.21 0.22 0.22 0.23 0.24 0.22 0.21 0.23 0.27 0.32 0.32 0.28 0.23 0.25 0.24 0.24 0.28 0.35 0.38 0.37 0.39 0.42 0.45 0.47 0.47 0.48 0.50 0.51 0.53 0.52 0.53 0.57 0.58 0.58
0.20 0.18 0.16 0.16 0.15 0.15 0.17 0.16 0.16 0.16 0.18 0.20 0.22 0.23 0.24 0.25 0.23 0.25 0.29 0.32 0.33 0.34 0.27 0.24 0.23 0.27 0.35 0.41 0.36 0.36 0.37 0.40 0.43 0.47 0.49 0.50 0.52 0.52 0.54 0.56 0.57 0.58 0.59 0.62
0.23 0.20 0.18 0.18 0.17 0.16 0.19 0.19 0.17 0.17 0.19 0.19 0.20 0.22 0.26 0.31 0.32 0.33 0.32 0.30 0.30 0.35 0.31 0.29 0.32 0.39 0.47 0.40 0.34 0.36 0.38 0.40 0.40 0.43 0.49 0.54 0.56 0.57 0.58 0.58 0.58 0.59 0.61 0.64
0.25 0.23 0.21 0.20 0.19 0.21 0.24 0.23 0.22 0.21 0.23 0.24 0.23 0.22 0.24 0.29 0.33 0.33 0.33 0.37 0.39 0.39 0.34 0.35 0.41 0.47 0.49 0.40 0.39 0.39 0.41 0.42 0.43 0.43 0.46 0.50 0.54 0.57 0.59 0.62 0.64 0.65 0.64 0.63
0.26 0.24 0.23 0.23 0.26 0.28 0.26 0.25 0.25 0.23 0.25 0.28 0.28 0.25 0.24 0.27 0.33 0.36 0.33 0.33 0.40 0.43 0.38 0.41 0.47 0.50 0.45 0.43 0.43 0.44 0.46 0.49 0.52 0.51 0.49 0.51 0.55 0.60 0.64 0.66 0.70 0.73 0.73 0.71
0.28 0.27 0.28 0.31 0.32 0.29 0.29 0.30 0.28 0.25 0.25 0.26 0.27 0.25 0.25 0.26 0.27 0.28 0.29 0.31 0.34 0.43 0.47 0.47 0.46 0.47 0.48 0.51 0.51 0.51 0.50 0.51 0.52 0.52 0.51 0.55 0.60 0.65 0.71 0.75 0.76 0.80 0.79 0.74
0.30 0.30 0.31 0.30 0.29 0.29 0.31 0.32 0.31 0.28 0.26 0.28 0.28 0.25 0.27 0.29 0.30 0.31 0.32 0.36 0.39 0.42 0.49 0.55 0.54 0.55 0.58 0.57 0.58 0.58 0.58 0.58 0.58 0.59 0.59 0.61 0.64 0.67 0.71 0.77 0.81 0.85 0.86 0.84